Weather History for Burlington, CO

Change the Weather History Date:

Wednesday, October 10, 2012

  Actual Average Record
Temperature  
Mean Temperature 47 °F 53 °F  
Max Temperature 66 °F 68 °F 90 °F (1962)
Min Temperature 27 °F 39 °F 18 °F (2009)
Degree Days  
Heating Degree Days 18    
Moisture  
Dew Point 33 °F    
Average Humidity 63    
Maximum Humidity 92    
Minimum Humidity 32    
Precipitation  
Precipitation 0.00 in 0.04 in 2.00 in (2005)
Month to date precipitation 0.12 0.40  
Year to date precipitation 10.42 15.69  
Sea Level Pressure  
Sea Level Pressure 30.11 in    
Wind  
Wind Speed 12 mph (SSW)    
Max Wind Speed 25 mph    
Max Gust Speed 34 mph    
Visibility 10 miles    
Events      
T = Trace of Precipitation, MM = Missing Value Source: NWS Daily Summary

Daily Weather History Graph

Daily Weather History Graph

Search for Another Location

Airport:

Trip Planner

Search our weather history database for the weather conditions in past years. The results will help you decide how hot, cold, wet, or windy it might be!

Date:

Astronomy

Oct. 10, 2012 Rise Set
Actual Time 6:54 AM MDT 6:16 PM MDT
Civil Twilight 6:27 AM MDT 6:43 PM MDT
Nautical Twilight 5:56 AM MDT 7:14 PM MDT
Astronomical Twilight 5:25 AM MDT 7:45 PM MDT
Moon 1:34 AM MDT (10/10) 3:19 PM MDT (10/10)
Length of Visible Light 12h 16m
Length of Day
11h 22m
Waning Crescent, 26% of the Moon is Illuminated
Oct 10
Waning Crescent
Oct 15
New
Oct 21
First Quarter
Oct 29
Full
Nov 6
Last Quarter

Hourly Weather History & Observations

Time (MDT) Temp. Windchill Dew Point Humidity Pressure Visibility Wind Dir Wind Speed Gust Speed Precip Events Conditions
12:53 AM 30.0 °F 24.1 °F 28.0 °F 92% 30.25 in 10.0 mi West 5.8 mph - N/A   Clear
1:53 AM 28.9 °F 22.8 °F 27.0 °F 92% 30.26 in 10.0 mi WSW 5.8 mph - N/A   Clear
2:53 AM 30.0 °F 24.1 °F 28.0 °F 92% 30.24 in 10.0 mi SW 5.8 mph - N/A   Clear
3:53 AM 28.0 °F 24.2 °F 26.1 °F 92% 30.23 in 10.0 mi WSW 3.5 mph - N/A   Clear
4:53 AM 27.0 °F 20.5 °F 25.0 °F 92% 30.23 in 10.0 mi SSW 5.8 mph - N/A   Clear
5:53 AM 30.9 °F 23.5 °F 28.0 °F 89% 30.22 in 10.0 mi South 8.1 mph - N/A   Clear
6:53 AM 32.0 °F 24.8 °F 28.9 °F 88% 30.23 in 10.0 mi South 8.1 mph - N/A   Clear
7:53 AM 35.1 °F 27.9 °F 30.0 °F 82% 30.23 in 10.0 mi South 9.2 mph - N/A   Clear
8:53 AM 42.1 °F 34.9 °F 34.0 °F 73% 30.24 in 10.0 mi South 13.8 mph - N/A   Clear
9:53 AM 48.9 °F - 35.1 °F 59% 30.22 in 10.0 mi SSW 21.9 mph 25.3 mph N/A   Clear
10:31 AM 51.8 °F - 35.6 °F 54% 30.20 in 0.5 mi South 24.2 mph - N/A   Haze
10:40 AM 53.6 °F - 35.6 °F 51% 30.19 in - SSW 23.0 mph - N/A   Clear
10:53 AM 54.0 °F - 36.0 °F 51% 30.18 in - South 20.7 mph - N/A   Clear
11:53 AM 57.0 °F - 34.0 °F 42% 30.14 in 10.0 mi South 23.0 mph - N/A   Unknown
12:53 PM 59.0 °F - 36.0 °F 42% 30.09 in 10.0 mi SSW 25.3 mph 34.5 mph N/A   Clear
1:53 PM 61.0 °F - 35.1 °F 38% 30.05 in 10.0 mi SSW 21.9 mph 31.1 mph N/A   Clear
2:53 PM 66.0 °F - 35.1 °F 32% 30.01 in 10.0 mi South 23.0 mph 32.2 mph N/A   Clear
3:53 PM 63.0 °F - 35.1 °F 35% 30.01 in 10.0 mi South 23.0 mph - N/A   Clear
4:53 PM 64.9 °F - 36.0 °F 34% 29.97 in 10.0 mi South 20.7 mph - N/A   Clear
5:53 PM 60.1 °F - 36.0 °F 41% 29.97 in 10.0 mi South 13.8 mph - N/A   Clear
6:53 PM 54.0 °F - 36.0 °F 51% 29.99 in 10.0 mi South 11.5 mph - N/A   Clear
7:53 PM 51.1 °F - 36.0 °F 56% 29.99 in 10.0 mi SSE 11.5 mph - N/A   Clear
8:53 PM 50.0 °F - 36.0 °F 59% 29.97 in 10.0 mi South 12.7 mph - N/A   Clear
9:53 PM 48.9 °F - 36.0 °F 61% 29.95 in 10.0 mi South 15.0 mph - N/A   Clear
10:53 PM 48.9 °F - 37.0 °F 64% 29.94 in 10.0 mi South 15.0 mph - N/A   Clear
11:53 PM 46.0 °F 41.9 °F 37.0 °F 71% 29.93 in 10.0 mi South 8.1 mph - N/A   Clear